Miscellaneous Local Product
Issued by NWS Hastings, NE

Home | Current Version | Previous Version | Graphics & Text | Print | Product List | Glossary On
Versions: 1 2 3 4 5 6 7 8 9 10 11 12 13 14 15 16 17 18 19 20 21 22 23 24 25 26 27 28 29 30 31 32 33 34 35 36 37 38 39 40 41 42 43 44 45 46 47 48 49 50
000
AXUS43 KGID 021502
MISGRI

GID CWA HOURLY WEATHER ROUNDUP
NATIONAL WEATHER SERVICE HASTINGS NE
900 AM CST FRI DEC 02 2016

NOTE: "FAIR" INDICATES FEW OR NO CLOUDS BELOW 12,000 FEET WITH NO
SIGNIFICANT WEATHER AND/OR OBSTRUCTIONS TO VISIBILITY.

...SOUTH CENTRAL NEBRASKA...

CITY           SKY/WX    TMP DP  RH WIND       PRES   REMARKS
GRAND ISLAND   SUNNY     26  23  88 CALM      30.24R
HASTINGS       SUNNY     27  22  81 N5        30.25R WCI  22
KEARNEY        SUNNY     21  18  86 NW3       30.23R
ORD            SUNNY     23  20  88 CALM      30.23R
YORK           SUNNY     27  25  93 N3        30.25R
AURORA         SUNNY     26  25  96 CALM      30.25R
LEXINGTON      SUNNY     22  19  87 NW5       30.23R WCI  15
HOLDREGE       SUNNY     23  21  91 N5        30.22R WCI  17
HEBRON         SUNNY     24  22  92 CALM      30.25R

...NEBRASKA PANHANDLE...

CITY           SKY/WX    TMP DP  RH WIND       PRES   REMARKS
CHADRON        CLEAR     23  19  85 SW5       30.18R WCI  17
ALLIANCE       CLEAR     16  12  84 W3        30.16R
SCOTTSBLUFF    CLEAR     18  13  80 NW6       30.18R WCI  10
SIDNEY         CLEAR     21  16  81 NW5       30.17R WCI  15

...WESTERN AND NORTH CENTRAL NEBRASKA...

CITY           SKY/WX    TMP DP  RH WIND       PRES   REMARKS
VALENTINE      CLOUDY    25  21  85 CALM      30.20R
AINSWORTH      CLOUDY    25  24  96 NW5       30.20R WCI  19
ONEILL         PTSUNNY   26  25  94 NW6       30.22R WCI  20
BROKEN BOW     SUNNY     26  24  92 CALM      30.21R
IMPERIAL       CLEAR     23  15  71 NW5       30.19R WCI  17
NORTH PLATTE   CLEAR     20  15  81 NW8       30.21R WCI  10
MCCOOK         SUNNY     21  14  74 W3        30.21R

...EASTERN NEBRASKA...

CITY           SKY/WX    TMP DP  RH WIND       PRES   REMARKS
NORFOLK        MOSUNNY   26  23  88 W7        30.22R WCI  18
SO SIOUX CITY  CLOUDY    36  32  85 NW9       30.24R WCI  29
TEKAMAH        SUNNY     32  28  85 CALM      30.24R
COLUMBUS       SUNNY     27  21  80 NW3       30.25R
ALBION         SUNNY     25  23  91 CALM      30.24R
OMAHA EPPLEY   MOSUNNY   32  28  85 CALM      30.26R
OFFUTT AFB     SUNNY     30  30  99 CALM      30.25R
MILLARD        SUNNY     32  28  86 CALM      30.26R
LINCOLN        SUNNY     26  24  92 CALM      30.27R
NEBRASKA CITY  SUNNY     32  27  80 CALM      30.26R
BEATRICE       SUNNY     25  23  91 CALM      30.25R
FALLS CITY     SUNNY     26  23  88 N3        30.25S

...NORTHERN KANSAS...

CITY           SKY/WX    TMP DP  RH WIND       PRES   REMARKS
GOODLAND       CLOUDY    22  14  71 W7        30.19R WCI  13
HILL CITY      SUNNY     23  15  71 W6        30.22R WCI  16
NORTON         SUNNY     25  16  68 NW8       30.20R WCI  16
PHILLIPSBURG   SUNNY     25  19  80 N3        30.22S
SMITH CENTER   SUNNY     25  21  86 N7        30.23R WCI  17
BELOIT         SUNNY     25  21  86 CALM      30.24R
HAYS           SUNNY     23  18  81 SW5       30.24R WCI  17
RUSSELL        SUNNY     27  19  72 NW7       30.20R WCI  19
CONCORDIA      SUNNY     24  21  88 NW6       30.24R WCI  17
SALINA         SUNNY     27  22  81 CALM      30.24R
TOPEKA         SUNNY     29  24  82 CALM      30.27R



USA.gov is the U.S. government's official web portal to all federal, state and local government web resources and services.